Regional Weather Roundup
Issued by NWS

Home | Current Version | Previous Version | Graphics & Text | Print | Product List | Glossary On
Versions: 1 2 3 4 5 6 7 8 9 10 11 12 13 14 15 16 17 18 19 20 21 22 23 24 25 26 27 28 29 30 31 32 33 34 35 36 37 38 39 40 41 42 43 44 45 46 47 48 49 50
000
ASUS43 KMPX 211101
RWRMN
WEATHER ROUNDUP FOR MINNESOTA
NATIONAL WEATHER SERVICE TWIN CITIES/CHANHASSEN MN
600 AM CDT THU AUG 21 2014


NOTE: "FAIR" INDICATES FEW OR NO CLOUDS BELOW 12,000 FEET WITH NO
SIGNIFICANT WEATHER AND/OR OBSTRUCTIONS TO VISIBILITY. N/A MEANS
CURRENT SKY AND/OR WEATHER CONDITIONS ARE NOT AVAILABLE.

MNZ060>063-068>070-211200-
   Twin Cities Metro

CITY           SKY/WX    TMP DP  RH WIND       PRES   REMARKS
TWIN CITIES    TSTM      70  68  93 SE13      29.77F
ST PAUL        LGT RAIN  69  67  93 E10       29.78F
CRYSTAL        TSTM      71  67  87 W10       29.81R FOG
BLAINE         RAIN      70  70 100 E5        29.82R
LAKEVILLE      RAIN      68  66  94 S8        29.80R
EDEN PRAIRIE   LGT RAIN  71  69  93 W5        29.79R
SOUTH ST PAUL  CLOUDY    69  66  91 SE6       29.78S
LAKE ELMO      LGT RAIN  68  64  88 E6        29.81S
$$
MNZ001>005-007-008-013>017-022>024-027-028-211200-
   Northwest Minnesota

CITY           SKY/WX    TMP DP  RH WIND       PRES   REMARKS
BEMIDJI        CLOUDY    64  61  91 E12       29.82F
HALLOCK        CLOUDY    68  64  88 SE8       29.76F
ROSEAU         CLOUDY    64  57  77 E3        29.83R
WARROAD        CLOUDY    63  57  82 SE3       29.85R
THIEF RVR FALL CLOUDY    64  63  94 E9        29.79S
CROOKSTON      CLOUDY    68  64  88 E6        29.77R
FOSSTON        CLOUDY    64  61  88 SE5       29.81R
DETROIT LAKES  CLOUDY    66  64  94 SE14G21   29.75S
MOORHEAD       CLOUDY    70  70 100 SE8       29.72R
PARK RAPIDS    RAIN      64  64 100 E12       29.79F FOG
MAHNOMEN       LGT RAIN  66  64  92 S10G16    29.77R
$$
MNZ006-009>011-018-025>026-211200-
   North Central Minnesota

CITY           SKY/WX    TMP DP  RH WIND       PRES   REMARKS
BAUDETTE       MOCLDY    59  57  93 SE7       29.87R
FLAG ISLAND    MOCLDY    66  63  88 SE8       29.85R
INTL FALLS     MOCLDY    56  55  97 SE12      29.90R
WASKISH        CLOUDY    61  59  94 E7        29.87R
BIG FORK       CLOUDY    61  57  88 SE6       29.90S
LONGVILLE      LGT RAIN  63  61  94 SE5       29.85S
GRAND RAPIDS   CLOUDY    61  57  88 SE7       29.89S
CRANE LAKE     CLOUDY    55  55 100 CALM      29.97R
ORR            CLOUDY    59  55  88 SE6       29.91R
COOK           CLOUDY    61  57  88 E3        29.93R
WALKER         LGT RAIN  64  61  91 SE6       29.85R
$$
MNZ012-019>021-037-211200-
   Northeast Minnesota

CITY           SKY/WX    TMP DP  RH WIND       PRES   REMARKS
DULUTH         FOG       60  58  92 E10       29.90S VSB 1/2
ELY            CLOUDY    59  57  94 SE5       29.95R
HIBBING        CLOUDY    61  58  90 SE7       29.92R
EVELETH        CLOUDY    59  59 100 E5        29.93S
DULUTH HARBOR  CLOUDY    61  59  94 NE15      29.90S FOG
TWO HARBORS    CLOUDY    59  54  82 E9        29.91F HAZE
SILVER BAY     CLOUDY    59  59 100 NE8       29.93R
GRAND MARAIS     N/A     59  59 100 E7        29.97R
G MARAIS ARPRT FOG       57  54  88 E3        29.99R VSB 1/4
$$
MNZ029>031-032-039>041-046>048-054>057-064-211200-
   West Central Minnesota

CITY           SKY/WX    TMP DP  RH WIND       PRES   REMARKS
FERGUS FALLS   CLOUDY    68  66  94 SE8       29.70R
WHEATON        CLOUDY    66  64  94 SE14G21   29.73R
MORRIS         CLOUDY    70  68  94 E13       29.72F
ALEXANDRIA     LGT RAIN  67  66  97 E16       29.79F
ELBOW LAKE     FAIR      67  66  96 SE12      29.72R
WADENA         RAIN      64  63  94 SE17G25   29.76F
APPLETON       MOCLDY    70  66  88 E9        29.71F
BENSON         CLOUDY    70  66  88 SE10G17   29.72F
ORTONVILLE     MOCLDY    68  64  88 SE12      29.72R
MADISON        PTCLDY    72  70  94 E10       29.71S
WILLMAR        FAIR      70  66  88 E10       29.78F
$$
MNZ033>034-036-042>043-049>051-058-059-211200-
   Central Minnesota

CITY           SKY/WX    TMP DP  RH WIND       PRES   REMARKS
ST CLOUD       HVY RAIN  67  65  93 NE10      29.82F FOG
SAUK CENTRE    RAIN      67  66  98 NE6       29.81F
PAYNESVILLE    CLOUDY    64  64  99 NE9       29.80F
AITKIN         MIX PCPN  64  59  82 NE3       29.86R
PINE RIVER     HVY RAIN  63  63 100 SE8       29.90R
BRAINERD       HVY RAIN  63  63 100 E6        29.87R FOG
STAPLES        RAIN      64  63  94 E5        29.85S
LONG PRAIRIE   RAIN      64  64 100 SE5       29.84R
LITTLE FALLS   RAIN      64  63  94 CALM      29.86R
LITCHFIELD     CLOUDY    72  72 100 NW8       29.84R
BUFFALO        TSTM      69  66  90 NW5G10    29.85R
MAPLE LAKE     TSTM      68  67  96 NW6       29.85R VSB 1
$$
MNZ037-044-045-052-053-211200-
   East Central Minnesota

CITY           SKY/WX    TMP DP  RH WIND       PRES   REMARKS
PRINCETON      TSTM      66  64  94 SW7       29.87R
MORA           RAIN      61  59  94 CALM      29.87R
CAMBRIDGE      TSTM      68  59  73 E3        29.81R
RUSH CITY      CLOUDY    65  63  90 E3        29.83R
MOOSE LAKE     CLOUDY    61  59  94 NE6       29.85F
HINCKLEY       RAIN      63  63 100 E3        29.86R
CLOQUET        CLOUDY    61  59  94 E7        29.90S FOG
MCGREGOR       CLOUDY    63  61  94 E6        29.89R
$$
MNZ071>073-080-081-089-090-097-098-211200-
   Southwest Minnesota

CITY           SKY/WX    TMP DP  RH WIND       PRES   REMARKS
MONTEVIDEO     CLOUDY    70  70 100 SE12      29.73F
GRANITE FALLS  CLOUDY    69  68  98 E10       29.75F
CANBY          PTCLDY    68  66  95 SE9       29.73S
MARSHALL       CLOUDY    70  66  88 E14       29.73F
REDWOOD FALLS  LGT RAIN  70  68  93 N6        29.78R
OLIVIA         CLOUDY    70  66  88 NE7       29.77S
PIPESTONE      CLOUDY    73  70  88 NE5       29.74R
WINDOM         CLOUDY    72  70  94 SE12      29.73F
WORTHINGTON    MOCLDY    73  14  10 CALM      29.76R
JACKSON        CLOUDY    70  66  88 E8        29.76F
TRACY          CLOUDY    70  69  96 N9        29.76R
SLAYTON        MOCLDY    70  70  99 CALM      29.75R
$$
MNZ065>067-074>077-082>085-091>093-211200-
   South Central Minnesota

CITY           SKY/WX    TMP DP  RH WIND       PRES   REMARKS
MANKATO        CLOUDY    70  66  88 SE14      29.79F
NEW ULM        CLOUDY    70  70 100 SE7       29.76R
ST JAMES       TSTM      73  72  94 SE16G26   29.73F
FAIRMONT       CLOUDY    70  64  83 MISG      29.78F THUNDER
GLENCOE        DRIZZLE   71  67  87 S3        29.77S
FARIBAULT      TSTM      73  68  83 SW12G18   29.86R
OWATONNA       TSTM      72  70  94 SW16G23   29.90R
WASECA         TSTM      72  66  83 SE7       29.84R
ALBERT LEA     TSTM      72  70  94 S8G16     29.80S
$$
MNZ078>079-086>088-094>096-211200-
   Southeast Minnesota

CITY           SKY/WX    TMP DP  RH WIND       PRES   REMARKS
ROCHESTER      TSTM      69  67  93 SE10      29.84R
RED WING       LGT RAIN  72  66  83 SE8       29.81R
STANTON        TSTM      72  68  88 S5        29.79R
DODGE CENTER   TSTM      70  70 100 SE8       29.82R
WINONA         CLOUDY    72  68  88 SE5       29.85R
AUSTIN         CLOUDY    72  70  94 SE7       29.82S
PRESTON        TSTM      69  69 100 SE8       29.88R
$$
ABBREVIATIONS USED IN REMARKS
   TC - TEMPERATURES IN CELSIUS
  WCI - WIND CHILL INDEX
   HX - HEAT INDEX
  VSB - VISIBILITY
$$



USA.gov is the U.S. government's official web portal to all federal, state and local government web resources and services.